Location: Chom�rac
(44.7084°N, 4.6610°E)
Time: 00:51:29
(UTC+00:00)

Daily predictions for brighter satellites

Satellite Brightness Start Highest point End
(mag) Time Altitude Azimuth Time Altitude Azimuth Time Altitude Azimuth
STARLINK-1099 4.2 00:00:23 10° WNW 00:03:25 47° WNW 00:03:25 47° WNW
ATLAS CENTAUR R/B 4.5 00:03:38 10° N 00:04:47 12° NE 00:06:13 10° ENE
STARLINK-1104 4.4 00:05:23 10° WNW 00:08:13 42° WNW 00:08:13 42° WNW
GEOS 3 Rocket 3.9 00:07:39 29° ESE 00:10:16 65° NE 00:15:30 10° NNW
Cosmos 1726 3.2 00:08:10 10° NNW 00:10:54 37° WNW 00:10:54 37° WNW
COSMOS 2455 2.9 00:11:39 51° SSE 00:12:51 61° ESE 00:18:47 10° NE
Cosmos 2058 Rocket 4.0 00:08:44 10° N 00:12:54 40° ENE 00:13:46 36° ESE
Meteor 1-29 4.0 00:10:59 10° NNE 00:13:32 41° NE 00:13:32 41° NE
Cosmos 2228 2.9 00:11:13 10° N 00:15:29 81° E 00:15:32 81° E
SL-14 R/B 4.3 00:18:39 35° E 00:18:39 35° E 00:22:06 10° NNE
Meteor 2-15 Rocket 4.4 00:13:06 10° NNW 00:19:16 77° W 00:20:55 51° S
Cosmos 1953 3.6 00:16:24 10° NNW 00:19:26 30° WNW 00:19:26 30° WNW
Cosmos 1340 Rocket 3.6 00:17:48 10° NNW 00:21:08 40° WNW 00:21:08 40° WNW
Okean 1-7 Rocket 4.0 00:22:03 49° ESE 00:22:27 51° E 00:26:50 10° NNE
Cosmos 921 Rocket 4.3 00:23:34 28° ESE 00:23:46 28° E 00:27:26 10° NE
Cosmos 1300 3.9 00:21:08 10° N 00:24:39 34° ENE 00:25:04 33° E
BREEZE M DEB (TANK) 4.4 00:26:49 19° ENE 00:26:49 19° ENE 00:28:02 10° ENE
COSMOS 2487 3.3 00:24:44 10° NNW 00:27:18 46° NNW 00:27:18 46° NNW
Cosmos 1833 4.3 00:23:37 10° NW 00:29:05 53° WSW 00:29:45 50° SW
Cosmos 1626 2.5 00:34:31 55° ENE 00:34:31 55° ENE 00:37:57 10° NNE
Cosmos 1656 Rocket 4.2 00:33:51 37° WSW 00:35:46 52° WNW 00:41:15 10° NNE
Cosmos 1606 Rocket 3.7 00:34:36 10° NNW 00:38:48 54° W 00:38:48 54° W
FALCON 9 R/B 3.3 00:38:25 39° S 00:39:51 43° SSE 00:56:13 10° E
CZ-4 R/B 4.4 00:39:47 10° N 00:44:23 45° WNW 00:45:23 39° WSW
MOZ.5/SAFIR/RUBIN 5/SL-8 4.4 00:44:15 31° SE 00:46:07 49° ENE 00:50:36 10° N
Meteor 2-21 4.4 00:45:34 45° SSW 00:47:35 80° W 00:53:48 10° N
Cosmos 2297 Rocket 3.9 00:43:36 10° N 00:48:34 30° NE 00:53:31 10° ESE
SL-4 R/B 2.3 00:49:12 60° SW 00:50:04 85° SSE 00:54:51 10° ENE
NOSS 3-2 (C) 4.4 00:44:38 10° NW 00:51:53 45° WSW 00:54:30 35° SSW
Cosmos 1437 3.8 00:52:48 39° NE 00:52:48 39° NE 00:55:03 10° NNE
PSLV R/B 4.5 00:48:45 10° N 00:53:02 39° WNW 00:53:53 36° W
Cosmos 1674 4.0 00:53:21 28° WNW 00:53:21 28° WNW 00:56:32 10° NNW
ATLAS CENTAUR R/B 1.5 00:56:56 58° WSW 00:57:37 70° NW 01:01:47 10° NNE
SL-19 R/B 4.2 00:52:49 10° NNE 00:58:14 82° WNW 01:00:03 45° SSW
SL-16 R/B 2.9 00:56:01 21° SE 01:00:10 63° ENE 01:06:16 10° N
Cosmos 1777 Rocket 3.9 00:55:12 10° NNW 01:00:25 74° WSW 01:01:54 47° S
NOSS 3-4 (A) 3.9 00:57:30 28° WSW 01:00:35 54° NW 01:06:51 10° NNE
NOSS 3-4 (C) 3.9 00:57:37 28° WSW 01:00:41 54° NW 01:06:58 10° NNE
Timation 2 Rocket 3.9 00:54:20 10° NNW 01:00:45 86° ENE 01:04:30 25° SSE
FALCON 9 DEB 4.4 01:02:08 31° E 01:02:08 31° E 01:04:26 10° ENE
BREEZE-M R/B 3.2 01:01:07 52° SSE 01:01:12 52° SSE 01:04:26 10° ENE
Spot 1 4.2 01:00:54 56° SSW 01:01:40 67° WSW 01:06:30 10° NNW
Cosmos 1602 Rocket 4.3 01:01:58 35° SE 01:03:08 44° E 01:07:14 10° NNE
STARLINK-29 3.8 01:04:34 44° ENE 01:04:34 44° ENE 01:06:55 10° ENE
Cosmos 1455 4.3 01:04:00 10° NNE 01:06:59 22° ENE 01:09:23 13° ESE
ATLAS 3B R/B 2.6 01:01:05 10° NW 01:07:53 72° WSW 01:12:43 22° SSE
CENTAUR R/B 3.6 01:04:07 10° NW 01:11:41 41° WSW 01:14:47 31° SSW
BREEZE-M DEB (TANK) 2.1 01:12:38 48° N 01:12:38 48° N 01:14:41 10° ENE
Cosmos 1745 Rocket 3.9 01:12:45 36° S 01:15:28 87° E 01:21:39 10° N
Cosmos 1892 Rocket 4.4 01:14:51 33° W 01:15:35 35° WNW 01:19:39 10° N
Cosmos 1867 4.0 01:11:06 10° NW 01:16:10 40° WSW 01:16:44 39° SW
RESURS DK-1 2.4 01:19:17 54° WSW 01:20:03 70° WNW 01:24:12 10° NNE
Meteor 1-24 Rocket 4.1 01:22:03 35° WSW 01:23:48 47° WNW 01:28:59 10° N
Cosmos 2227 Rocket 3.2 01:18:54 10° NNW 01:24:24 47° ENE 01:29:50 10° SE
Cosmos 1356 Rocket 3.3 01:20:37 10° NNW 01:24:46 81° W 01:25:49 50° S
Cosmos 1697 Rocket 4.3 01:23:11 14° SSE 01:26:38 25° ESE 01:31:08 10° NE
CZ-2D R/B 2.1 01:22:41 10° NNE 01:27:59 80° ESE 01:30:15 35° S
ATLAS 2AS CENTAUR R/B 3.9 01:23:17 15° WSW 01:29:37 44° NW 01:37:08 10° NNE
ADEOS II 3.3 01:25:49 10° NNE 01:30:34 34° E 01:34:07 16° SSE
IKONOS-2 4.4 01:29:56 41° S 01:31:24 82° WSW 01:35:42 10° NNW
CZ-4C R/B 3.5 01:30:46 48° SSW 01:31:41 62° WSW 01:35:59 10° NNW
STARLINK-1228 2.9 01:32:09 10° WNW 01:35:30 85° SW 01:38:50 10° SE
STARLINK-1234 2.7 01:33:34 10° WNW 01:36:42 88° SW 01:37:03 68° SE
Resurs 1-4 Rocket 2.0 01:32:26 10° NNE 01:37:45 83° WNW 01:40:11 33° SSW
STARLINK-1212 3.0 01:34:57 10° NW 01:38:03 71° NNE 01:41:08 10° ESE
STARLINK-1105 3.0 01:35:25 10° NW 01:38:31 71° NNE 01:41:36 10° ESE
USA 81 4.0 01:36:20 30° S 01:38:59 82° E 01:44:18 10° N
STARLINK-1209 2.8 01:35:49 10° WNW 01:38:42 69° W 01:38:42 69° W
STARLINK-1247 3.0 01:36:19 10° NW 01:39:27 73° NNE 01:42:33 10° ESE
STARLINK-1227 3.0 01:36:48 10° NW 01:39:53 73° NNE 01:42:58 10° ESE
STARLINK-52 3.1 01:39:41 55° W 01:40:10 66° NNW 01:43:23 10° NE
STARLINK-1226 3.0 01:37:38 10° NW 01:40:45 75° NNE 01:43:52 10° ESE
Cosmos 1758 Rocket 4.1 01:39:23 27° SSE 01:41:29 53° E 01:45:44 10° NNE
STARLINK-1215 2.9 01:38:35 10° NW 01:41:42 76° NNE 01:44:49 10° ESE
ARIANE 5 R/B 4.2 01:38:24 10° NE 01:42:37 26° E 01:46:47 10° SSE
STARLINK-1217 2.9 01:40:21 10° NW 01:43:28 79° NNE 01:46:35 10° ESE
STARLINK-1229 2.9 01:41:16 10° NW 01:44:24 80° NNE 01:47:31 10° ESE
NPP 3.6 01:39:46 10° NNE 01:45:11 84° WNW 01:47:57 30° SSW
STARLINK-1270 2.8 01:42:07 10° NW 01:45:15 82° NNE 01:48:23 10° ESE
STARLINK-1189 2.8 01:43:58 10° NW 01:47:06 85° NNE 01:50:13 10° ESE
STARLINK-1188 2.8 01:44:51 10° NW 01:47:59 86° NE 01:51:06 10° ESE
STARLINK-1235 2.6 01:45:33 10° WNW 01:48:38 73° SW 01:51:43 10° SE
STARLINK-1187 2.7 01:45:57 10° WNW 01:49:04 82° SSW 01:52:10 10° SE
Cosmos 1898 Rocket 4.0 01:44:25 10° NNW 01:49:44 62° ENE 01:54:59 10° SSE
Meteor 1-21 Rocket 4.2 01:46:49 28° S 01:49:55 88° E 01:55:37 10° N
STARLINK-1191 2.7 01:47:20 10° WNW 01:50:26 90° SSW 01:53:32 10° SE
Lacrosse 4 Rocket 4.0 01:47:35 10° N 01:51:05 23° NE 01:54:30 10° E
STARLINK-1221 2.7 01:48:12 10° WNW 01:51:19 88° SSW 01:54:24 10° SE
Cosmos 1656 3.8 01:48:20 27° S 01:51:26 70° ESE 01:57:04 10° NNE
STARLINK-1222 2.7 01:49:05 10° WNW 01:52:12 87° SSW 01:55:18 10° SE
STARLINK-1214 2.7 01:50:01 10° WNW 01:53:06 85° SW 01:56:12 10° SE
CZ-4C R/B 3.1 01:50:43 20° SSE 01:53:26 35° ESE 01:58:33 10° NE
STARLINK-1154 4.4 01:49:33 10° NW 01:53:38 53° NNE 01:57:41 10° ESE
Cosmos 2084 3.7 01:52:18 32° WSW 01:54:13 67° NW 01:58:42 10° NE
Cosmos 468 Rocket 4.1 01:52:22 27° S 01:55:11 68° ESE 02:00:17 10° NNE
SJ 16-02 1.4 01:50:50 10° NNW 01:55:17 78° ENE 01:59:17 13° SSE
Cosmos 1953 Rocket 4.5 01:54:38 17° SSE 01:57:49 45° E 02:02:04 10° NNE
STARLINK-1197 4.3 01:54:31 10° NW 01:58:37 56° NNE 02:02:42 10° ESE
COSMOS 2455 4.3 01:54:47 13° W 01:59:12 29° NW 02:04:25 10° NNE
Cosmos 1937 Rocket 4.2 01:54:50 10° NNW 01:59:59 55° ENE 02:05:08 10° SE
Cosmos 921 Rocket 4.3 02:00:21 21° W 02:02:00 27° WNW 02:05:41 10° N
Meteor 2-10 Rocket 3.4 01:56:59 10° NNW 02:02:19 76° W 02:06:01 19° S
STARLINK-1198 4.2 01:59:29 10° NW 02:03:35 60° NNE 02:07:41 10° ESE
Cosmos 1709 Rocket 4.0 02:01:48 24° SSW 02:05:37 71° W 02:11:45 10° N
STARLINK-1199 4.1 02:04:29 10° NW 02:08:36 64° NNE 02:12:43 10° ESE
STARLINK-1210 3.9 02:09:27 10° NW 02:13:35 69° NNE 02:17:42 10° ESE
STARLINK-1320 2.7 02:14:52 37° SW 02:15:57 89° SE 02:19:05 10° ENE
STARLINK-1322 2.7 02:15:11 37° SW 02:16:18 89° SSE 02:19:25 10° ENE
STARLINK-1324 2.8 02:15:32 36° SW 02:16:39 90° E 02:19:47 10° ENE
STARLINK-1294 2.8 02:15:47 36° SW 02:16:56 90° W 02:20:05 10° ENE
Cosmos 2219 3.4 02:11:49 10° NW 02:17:17 50° WSW 02:22:14 12° S
STARLINK-1261 2.8 02:16:09 36° WSW 02:17:18 89° WNW 02:20:26 10° ENE
STARLINK-1325 2.8 02:16:30 35° WSW 02:17:39 88° NW 02:20:47 10° ENE
STARLINK-1333 2.8 02:16:48 35° WSW 02:17:58 88° NW 02:21:06 10° ENE
STARLINK-1334 2.8 02:17:07 35° WSW 02:18:18 88° NW 02:21:26 10° ENE
STARLINK-1219 3.8 02:14:25 10° NW 02:18:34 74° NNE 02:22:42 10° ESE
STARLINK-1326 2.8 02:17:28 34° WSW 02:18:40 87° NNW 02:21:47 10° NE
Cosmos 1980 Rocket 3.4 02:13:46 10° S 02:18:46 35° ESE 02:23:49 10° NE
STARLINK-1323 2.8 02:17:47 34° WSW 02:18:59 86° NW 02:22:07 10° NE
STARLINK-1338 3.1 02:17:39 31° SW 02:19:12 84° SE 02:22:41 10° ENE
STARLINK-1349 2.8 02:18:06 34° WSW 02:19:20 86° NW 02:22:27 10° NE
STARLINK-1336 2.8 02:18:28 33° WSW 02:19:41 85° NW 02:22:49 10° NE
STARLINK-1331 2.8 02:18:45 33° WSW 02:20:00 85° NNW 02:23:08 10° NE
STARLINK-1344 2.8 02:19:05 33° WSW 02:20:21 84° NNW 02:23:29 10° NE
STARLINK-1343 2.8 02:19:25 32° WSW 02:20:41 84° NNW 02:23:49 10° NE
STARLINK-1346 2.8 02:19:43 32° WSW 02:21:02 83° NNW 02:24:12 10° NE
STARLINK-1328 2.8 02:20:05 32° WSW 02:21:23 83° NNW 02:24:31 10° NE
Cosmos 1328 3.7 02:19:18 24° SSW 02:21:39 76° W 02:25:39 10° N
STARLINK-1354 2.8 02:20:22 32° WSW 02:21:41 82° NNW 02:24:48 10° NE
STARLINK-1347 2.8 02:20:44 31° WSW 02:22:03 81° NNW 02:25:11 10° NE
STARLINK-1357 2.8 02:21:01 31° WSW 02:22:22 81° NNW 02:25:30 10° NE
STARLINK-1335 2.8 02:21:22 31° WSW 02:22:43 80° NNW 02:25:50 10° NE
STARLINK-1327 2.8 02:21:41 30° WSW 02:23:03 80° NNW 02:26:10 10° NE
CRYOSAT 2 4.3 02:18:17 10° N 02:23:13 88° W 02:27:17 15° S
STARLINK-1371 3.1 02:21:31 28° SW 02:23:14 90° NW 02:26:45 10° ENE
STARLINK-1340 2.8 02:22:01 30° WSW 02:23:24 79° NW 02:26:32 10° NE
STARLINK-1211 3.7 02:19:22 10° NW 02:23:32 79° NE 02:27:41 10° ESE
STARLINK-1356 2.8 02:22:20 30° WSW 02:23:44 79° NNW 02:26:52 10° NE
ERS-2 2.8 02:20:29 10° SSE 02:24:03 55° ENE 02:27:40 10° N
STARLINK-1345 2.8 02:22:41 29° WSW 02:24:05 78° NNW 02:27:13 10° NE
STARLINK-1355 2.9 02:22:59 29° WSW 02:24:24 78° NW 02:27:32 10° NE
STARLINK-1321 2.9 02:23:18 29° WSW 02:24:44 77° NNW 02:27:51 10° NE
STARLINK-1358 2.9 02:23:39 29° WSW 02:25:06 77° NNW 02:28:14 10° NE
STARLINK-1341 3.1 02:23:29 27° WSW 02:25:17 87° NW 02:28:47 10° ENE
STARLINK-1332 2.9 02:23:57 28° WSW 02:25:25 76° NNW 02:28:32 10° NE
STARLINK-1348 2.9 02:24:18 28° WSW 02:25:46 76° NNW 02:28:54 10° NE
STARLINK-1330 2.9 02:24:36 28° WSW 02:26:05 75° NNW 02:29:13 10° NE
STARLINK-1363 2.9 02:24:56 28° WSW 02:26:25 75° NNW 02:29:33 10° NE
STARLINK-1337 2.9 02:25:15 27° WSW 02:26:46 74° NNW 02:29:53 10° NE
STARLINK-1342 2.9 02:25:35 27° WSW 02:27:07 74° NNW 02:30:14 10° NE
STARLINK-1374 3.1 02:25:26 25° WSW 02:27:20 84° NNW 02:30:51 10° NE
STARLINK-1364 2.9 02:25:55 27° WSW 02:27:27 73° NNW 02:30:35 10° NE
STARLINK-1376 2.9 02:26:15 27° WSW 02:27:48 73° NNW 02:30:55 10° NE
STARLINK-1360 2.9 02:26:30 26° WSW 02:28:04 72° NNW 02:31:11 10° NE
STARLINK-1361 2.9 02:26:56 26° WSW 02:28:31 72° NNW 02:31:38 10° NE
STARLINK-1245 3.6 02:24:22 10° NW 02:28:31 85° NNE 02:32:41 10° ESE
STARLINK-1367 3.0 02:27:10 26° WSW 02:28:47 72° NNW 02:31:56 10° NE
IRS-1C 4.1 02:23:33 10° NNE 02:28:56 90° WNW 02:33:25 15° SSW
STARLINK-1366 3.0 02:27:33 26° WSW 02:29:09 71° NNW 02:32:16 10° NE
STARLINK-1339 3.1 02:27:27 24° WSW 02:29:25 81° NNW 02:32:56 10° NE
SL-4 R/B 3.5 02:25:38 10° W 02:30:11 40° NNW 02:34:34 10° ENE
STARLINK-1377 3.2 02:29:28 23° WSW 02:31:31 78° NNW 02:35:02 10° NE
CZ-4B R/B 4.3 02:27:03 10° N 02:31:46 38° WNW 02:35:12 17° SW
Cosmos 2297 Rocket 2.5 02:27:25 10° NW 02:32:48 46° WSW 02:38:09 10° S
STARLINK-1353 3.2 02:31:17 22° WSW 02:33:22 76° NNW 02:36:52 10° NE
STARLINK-1233 3.6 02:29:20 10° WNW 02:33:30 89° SW 02:37:39 10° SE
STARLINK-1375 3.2 02:33:04 21° WSW 02:35:14 73° NNW 02:38:44 10° NE
Cosmos 2082 3.7 02:30:55 10° NNW 02:36:37 84° WSW 02:42:14 10° SSE
Cosmos 540 Rocket 3.7 02:32:22 13° S 02:36:53 67° ESE 02:41:59 10° NNE
ATLAS CENTAUR R/B 3.9 02:35:11 10° WNW 02:37:12 13° NW 02:39:10 10° N
STARLINK-1350 3.3 02:35:22 20° WSW 02:37:38 70° NNW 02:41:07 10° NE
FALCON 9 DEB 4.3 02:35:24 12° W 02:38:14 37° NNW 02:41:30 10° NE
STARLINK-1204 3.5 02:34:20 10° WNW 02:38:29 83° SW 02:42:38 10° SE
Cosmos 990 Rocket 4.2 02:33:34 10° NNW 02:38:38 49° WSW 02:43:39 10° S
CBERS-1 4.5 02:33:47 10° N 02:38:41 47° WNW 02:42:28 16° SW
STARLINK-1352 3.4 02:37:39 19° WSW 02:40:04 67° NNW 02:43:35 10° NE
Cosmos 1825 Rocket 4.1 02:38:21 19° SW 02:41:06 41° WNW 02:45:13 10° N
Cosmos 2278 4.0 02:36:08 12° S 02:41:17 64° ESE 02:46:53 10° NNE
STARLINK-1368 3.4 02:39:45 18° WSW 02:42:14 65° NNW 02:45:45 10° NE
Cosmos 1455 3.4 02:39:27 10° NW 02:42:34 25° W 02:44:16 18° SW
CZ-2D R/B 3.8 02:39:10 10° NNE 02:43:15 64° ESE 02:47:25 10° S
STARLINK-1238 3.5 02:39:17 10° WNW 02:43:26 77° SW 02:47:34 10° SE
Meteor 1-11 4.2 02:38:11 12° S 02:43:32 86° WNW 02:49:10 10° N
Meteor 1-28 Rocket 3.2 02:40:04 10° SSE 02:43:51 90° WSW 02:47:39 10° NNW
STARLINK-1369 3.4 02:41:37 17° WSW 02:44:09 62° NNW 02:47:38 10° NE
SL-16 R/B 3.7 02:41:06 16° SW 02:44:13 22° W 02:48:56 10° NW
USA 234 4.1 02:38:51 10° ENE 02:44:57 41° SE 02:51:02 10° SSW
STARLINK-1372 3.5 02:43:57 16° WSW 02:46:38 60° NNW 02:50:08 10° NE
ATLAS CENTAUR R/B 2.8 02:43:31 10° WNW 02:46:53 44° SW 02:54:39 10° SSE
Cosmos 2074 Rocket 4.0 02:40:37 10° S 02:46:55 85° W 02:53:16 10° N
Cosmos 2263 Rocket 4.2 02:43:22 10° N 02:48:24 32° NE 02:53:23 10° ESE
STARLINK-1201 3.5 02:44:18 10° WNW 02:48:25 71° SW 02:52:32 10° SE
STARLINK-1378 3.6 02:46:05 15° WSW 02:48:52 58° NNW 02:52:22 10° NE
Cosmos 841 Rocket 3.5 02:44:27 13° SSW 02:49:10 89° WNW 02:54:27 10° NNE
STARLINK-1329 3.6 02:46:35 15° WSW 02:49:23 58° NNW 02:52:54 10° NE
STARLINK-1365 3.7 02:47:17 14° WSW 02:50:07 55° NNW 02:53:37 10° NE
Cosmos 372 Rocket 4.4 02:45:13 10° NNW 02:50:20 67° ENE 02:55:27 10° SSE
GP-B 4.3 02:46:58 10° NNW 02:50:42 27° WNW 02:53:36 14° SW
STARLINK-1379 3.6 02:48:13 14° WSW 02:51:05 56° NNW 02:54:35 10° NE
IRS-1D 4.4 02:46:37 10° N 02:51:31 38° WNW 02:55:45 13° SW
STARLINK-1362 3.7 02:48:47 14° WSW 02:51:41 56° NNW 02:55:11 10° NE
STARLINK-1206 3.6 02:49:17 10° WNW 02:53:24 65° SW 02:57:29 10° SE
COBE Rocket 3.9 02:48:59 10° S 02:53:52 72° W 02:58:56 10° NNW
STARLINK-1373 3.7 02:50:59 13° WSW 02:53:59 54° NNW 02:57:29 10° NE
Cosmos-2242 3.9 02:50:25 10° NNW 02:54:10 30° W 02:57:21 13° SSW
Cosmos 1869 4.4 02:51:05 10° N 02:54:51 45° ENE 02:58:34 10° SSE
Cosmos 1400 Rocket 2.9 02:51:22 10° NNW 02:55:28 67° W 02:59:34 10° S
STARLINK-1390 3.8 02:52:59 13° WSW 02:56:03 52° NNW 02:59:31 10° NE
Cosmos 2221 3.2 02:51:59 10° N 02:56:16 58° ENE 03:00:32 10° SSE
ATLAS 3B R/B 4.3 02:54:18 10° WNW 02:57:28 14° WSW 02:59:50 12° SW
STARLINK-1205 3.6 02:54:16 10° WNW 02:58:22 60° SW 03:02:26 10° SE
Cosmos 2184 Rocket 4.0 02:52:18 10° SSW 02:58:28 73° W 03:04:39 10° N
SL-08 R/B 3.7 02:54:57 10° S 02:59:26 43° W 03:03:53 10° NNW
CZ-4C R/B 3.1 02:56:15 10° SSE 02:59:49 87° ENE 03:03:28 10° NNW
STARLINK-1218 3.7 02:59:15 10° WNW 03:03:18 55° SW 03:07:21 10° SE
CZ-2D R/B 4.0 03:04:17 10° NNW 03:07:21 16° WNW 03:10:25 10° W
Cosmos 1763 Rocket 4.4 03:03:46 11° SW 03:08:08 34° WNW 03:12:48 10° N
Cosmos 2227 Rocket 3.1 03:03:26 10° NW 03:08:11 28° WSW 03:12:55 10° SSW
STARLINK-1254 3.8 03:04:16 10° WNW 03:08:17 50° SW 03:12:17 10° SE
Cosmos 1697 Rocket 3.1 03:04:56 11° SW 03:10:13 53° WNW 03:15:47 10° NNE
ADEOS II 3.0 03:05:32 10° N 03:10:14 34° WNW 03:14:55 10° SW
Cosmos 2150 Rocket 4.2 03:07:10 10° NNW 03:12:24 79° ENE 03:17:32 10° SSE
STARLINK-1231 3.9 03:09:17 10° WNW 03:13:16 46° SW 03:17:13 10° SSE
Cosmos 1315 Rocket 3.0 03:11:36 10° N 03:15:31 73° ENE 03:19:25 10° SSE
STARLINK-1246 4.5 03:11:30 10° NW 03:15:35 55° NNE 03:19:39 10° ESE
SL-16 R/B 3.9 03:11:20 10° SSE 03:16:12 30° ESE 03:21:05 10° NE
Resurs 1-4 Rocket 4.2 03:14:21 10° NNW 03:16:44 13° NW 03:19:07 10° W
Cosmos 1610 Rocket 4.5 03:11:01 10° SSW 03:17:08 77° W 03:23:19 10° N
CZ-2C R/B 2.6 03:13:29 10° N 03:17:11 82° WNW 03:20:54 10° SSW
MSX 4.2 03:12:26 10° NNE 03:18:12 69° ESE 03:23:55 10° S
STARLINK-1232 4.0 03:14:18 10° WNW 03:18:13 42° SW 03:22:07 10° SSE
SAR-Lupe-4 4.0 03:16:25 10° SSE 03:19:58 67° ENE 03:23:33 10° N
H-2A R/B 2.4 03:16:08 10° S 03:20:16 47° W 03:24:32 10° NNW
STARLINK-1224 4.3 03:16:27 10° NW 03:20:34 59° NNE 03:24:39 10° ESE
ARIANE 5 R/B 3.1 03:17:07 10° N 03:21:51 40° WNW 03:26:31 10° SW
STARLINK-1208 4.1 03:19:17 10° WNW 03:23:09 38° SW 03:26:59 10° SSE
deb Chang Zheng 4 4.2 03:18:57 10° NNE 03:23:13 56° E 03:27:26 10° S
BREEZE-M R/B 3.6 03:20:41 10° WNW 03:23:45 31° NNW 03:26:02 10° ENE
STARLINK-1225 4.2 03:21:27 10° NW 03:25:34 63° NNE 03:29:40 10° ESE
Spot 4 Rocket 4.4 03:22:50 10° N 03:27:48 49° WNW 03:32:43 10° SW
STARLINK-1271 4.2 03:24:20 10° WNW 03:28:07 35° SW 03:31:54 10° SSE
SL-24 DEB 4.2 03:23:46 10° N 03:28:25 73° W 03:32:58 10° SSW
BREEZE-M DEB (TANK) 2.2 03:26:45 10° W 03:28:36 26° SSW 03:30:54 10° SSE
Lacrosse 4 Rocket 1.8 03:25:52 10° NW 03:29:59 44° WSW 03:33:59 10° S
Cosmos 2154 Rocket 4.1 03:24:14 10° SSW 03:30:28 65° W 03:36:43 10° N
STARLINK-1230 4.1 03:26:25 10° NW 03:30:33 67° NNE 03:34:40 10° ESE
